CW1656 Weather Reports


Display with metric or nautical units.
time (UTC)temp
F
wind
direction
speed
MPH
gust
MPH
rain 1hr
in
rain 24hr
in
rain mn
in
humidity
%
barometer
mb
20260505003023 64 112 0.0 2.0 0.00 0.00 0.00 49 1004.1
20260505001523 65 63 0.0 1.0 0.00 0.00 0.00 47 1004.2
20260505000029 66 16 0.0 3.0 0.00 0.00 0.00 47 1004.3
20260504234520 68 268 0.0 2.0 0.00 0.00 0.00 45 1004.2
20260504233020 69 283 0.0 2.0 0.00 0.00 0.00 45 1004.2
20260504231519 70 84 0.0 5.0 0.00 0.00 0.00 43 1004.1
20260504230020 71 259 1.0 4.0 0.00 0.00 0.00 43 1004.2
20260504224518 71 252 1.0 10.0 0.00 0.00 0.00 41 1004.3
20260504223018 72 326 3.0 10.0 0.00 0.00 0.00 38 1004.1
20260504221520 73 355 3.0 7.0 0.00 0.00 0.00 38 1004.0
20260504220017 73 155 1.0 8.0 0.00 0.00 0.00 39 1003.9
20260504214515 73 246 1.0 12.0 0.00 0.00 0.00 40 1004.0
20260504213035 74 115 1.0 8.0 0.00 0.00 0.00 39 1004.2
20260504211518 73 284 2.0 8.0 0.00 0.00 0.00 39 1004.2
20260504210014 74 235 2.0 13.0 0.00 0.00 0.00 38 1004.3
20260504204510 74 130 1.0 9.0 0.00 0.00 0.00 42 1004.4
20260504203010 74 159 4.0 12.0 0.00 0.00 0.00 38 1004.5
20260504201512 74 284 2.0 7.0 0.00 0.00 0.00 40 1004.6
20260504200006 74 277 3.0 12.0 0.00 0.00 0.00 39 1004.8
20260504194503 74 153 0.0 9.0 0.00 0.00 0.00 44 1005.1
20260504193111 74 222 2.0 5.0 0.00 0.00 0.00 40 1005.3
20260504191557 73 113 2.0 11.0 0.00 0.00 0.00 46 1005.5
20260504190114 73 224 1.0 8.0 0.00 0.00 0.00 43 1005.8
20260504184600 73 275 2.0 10.0 0.00 0.00 0.00 44 1005.9
20260504183050 73 299 5.0 10.0 0.00 0.00 0.00 43 1006.2
20260504181548 73 248 3.0 8.0 0.00 0.00 0.00 44 1006.3
20260504180048 72 162 2.0 7.0 0.00 0.00 0.00 48 1006.5
20260504174544 72 246 3.0 10.0 0.00 0.00 0.00 48 1006.7
20260504173048 71 167 3.0 12.0 0.00 0.00 0.00 49 1006.6
20260504171539 71 260 2.0 9.0 0.00 0.00 0.00 52 1006.8
20260504081514 49 158 0.0 5.0 0.00 0.00 0.00 63 1009.2
20260504044557 50 186 0.0 1.0 0.00 0.00 0.00 62 1010.7
20260504043044 51 232 0.0 6.0 0.00 0.00 0.00 61 1010.7
20260504041541 51 215 1.0 4.0 0.00 0.00 0.00 60 1010.7
20260504040039 51 188 0.0 6.0 0.00 0.00 0.00 59 1010.8
20260504034545 52 261 1.0 5.0 0.00 0.00 0.00 59 1010.7
20260504033050 52 162 0.0 4.0 0.00 0.00 0.00 58 1010.7
20260504031538 53 234 2.0 10.0 0.00 0.00 0.00 58 1010.7
20260504030037 53 254 1.0 8.0 0.00 0.00 0.00 58 1010.8
20260504024535 52 99 1.0 3.0 0.00 0.00 0.00 60 1010.8
20260504023035 52 252 0.0 4.0 0.00 0.00 0.00 60 1010.8
20260504021536 52 136 0.0 10.0 0.00 0.00 0.00 60 1011.1
20260504020035 52 263 0.0 7.0 0.00 0.00 0.00 61 1011.1
20260504014532 52 186 0.0 4.0 0.00 0.00 0.00 61 1011.1
20260504013037 51 171 0.0 5.0 0.00 0.00 0.00 65 1011.1
20260504011531 51 199 0.0 4.0 0.00 0.00 0.00 70 1011.1
20260504010039 50 88 0.0 1.0 0.00 0.00 0.00 71 1011.3
20260504004530 50 348 0.0 2.0 0.00 0.00 0.00 72 1011.4